User: anonymous
Location: Unspecified
(0.0000°N, 0.0000°E)
Time: 19:20:24
(UTC+02:00)
Language:

Cosmos 407 Rocket - Orbit

View from above orbital plane
View from above orbital plane
View from above satellite
View from above satellite

Ground track
Ground track

The orbit data is extracted from the following two-line orbital elements,

1 05175U 71035B   14234.73299439  .00000080  00000-0  35163-4 0  4832
2 05175 074.0488 302.9927 0029627 044.8835 315.4707 14.37493095267019
Epoch (UTC): 22 August 2014 17:35:30
Eccentricity: 0.0029627
inclination: 74.0488°
perigee height: 745 km
apogee height: 788 km
right ascension of ascending node: 302.9927°
argument of perigee: 44.8835°
revolutions per day: 14.37493095
mean anomaly at epoch: 315.4707°
orbit number at epoch: 26701

The dashed part of the orbit path shows where the satellite is in the earth's shadow,  

DLR